Wind_Speed
16 13 15 18 16 18 10 12 16 7 9 12 16 17 15 9 13 14 15 16 16 15 14 15 20 15 12 12 13 13 14 11 14 14 13 12 11 10 5 3 2 4 6 8
14 17 17 15 5 7 11 14 13 8 9 9 15 16 12 13 4 10 9 10 14 11 14 18 13 4 5 8 1 3 6 8 10 8 9 10 11 5 5 3 3 5 6 8
20 11 20 7 10 13 15 15 14 14 12 12 18 18 14 8 8 5 3 6 10 11 7 14 9 6 3 3 2 3 3 7 6 6 6 5 3 6 6 1 4 7 8 7
19 18 9 11 15 14 15 15 16 14 13 11 20 14 22 15 10 7 5 6 5 4 4 6 12 8 7 6 7 7 7 5 3 3 4 7 6 5 2 4 4 5 5 6
18 17 15 15 16 14 14 8 12 15 14 15 13 8 4 13 15 12 7 8 7 5 9 9 10 10 9 8 9 9 10 9 8 6 7 0 3 2 1 3 5 7 4 5
20 13 13 16 15 13 9 7 12 14 14 14 19 12 12 15 13 13 11 10 8 10 11 11 13 13 13 13 13 12 11 9 7 6 6 5 4 4 5 7 8 9 9 9
17 20 13 14 16 12 11 12 8 9 11 13 16 15 4 9 6 11 15 11 9 11 12 12 12 14 13 12 12 11 9 9 8 7 7 6 5 5 4 9 10 10 11 10
15 17 21 14 19 16 17 16 11 9 11 14 11 10 7 13 12 11 11 11 10 11 11 12 13 13 13 11 10 10 10 9 7 7 6 6 6 5 5 7 8 10 11 13
17 18 16 21 18 18 18 16 17 15 16 9 12 9 10 14 13 11 12 11 11 11 11 12 13 13 12 11 9 9 9 8 7 6 5 5 5 6 7 7 9 10 12 14
14 9 15 17 17 20 22 9 12 8 12 13 14 13 7 17 16 14 13 12 12 11 12 11 13 12 12 11 10 9 7 7 6 5 5 5 5 6 7 8 9 12 14 14
19 10 13 12 16 20 14 15 13 13 10 10 11 0 13 11 14 15 14 14 13 13 12 11 12 12 11 11 10 8 7 6 5 4 2 2 4 6 7 8 12 14 15 14
20 9 12 17 17 18 21 20 18 11 14 9 10 12 3 3 11 12 13 13 13 12 12 11 13 12 11 10 9 8 6 5 4 2 3 4 6 6 7 10 12 14 14 14
19 11 12 14 9 7 11 14 15 17 14 16 11 9 6 8 10 10 11 13 12 12 12 11 12 12 11 9 8 7 5 4 2 2 3 3 5 6 7 9 11 12 14 15
15 13 17 15 17 17 18 18 16 13 10 13 15 12 14 13 12 11 7 14 12 11 12 11 10 11 10 9 8 7 5 3 2 2 3 4 6 8 8 9 11 12 14 15
14 19 17 20 21 15 13 19 19 17 17 16 6 1 3 5 8 8 11 9 12 11 12 12 10 11 10 9 7 6 5 1 0 3 4 6 7 8 8 9 9 11 13 14
16 14 19 21 19 19 14 14 19 19 17 16 10 6 9 13 3 1 5 13 11 11 11 11 9 11 10 9 7 6 3 1 2 3 5 6 7 8 8 9 10 11 12 13
17 15 16 19 19 13 19 18 15 14 15 14 10 2 8 7 3 1 4 3 9 10 10 10 10 10 10 8 7 5 3 1 1 3 6 6 7 9 9 10 10 12 12 13
18 18 14 15 15 18 13 11 18 14 11 8 5 8 3 5 7 3 2 3 7 9 9 9 11 10 10 9 7 5 3 2 3 4 6 7 8 9 11 11 12 12 13 13
15 16 14 13 13 8 1 6 10 9 9 5 4 4 3 7 9 7 5 7 9 9 10 11 11 12 11 9 6 4 5 3 3 5 6 7 9 10 12 12 13 13 13 14
13 14 14 10 10 21 8 16 12 10 10 14 13 6 6 9 11 9 8 10 11 14 14 14 14 13 12 9 7 5 1 2 3 5 6 8 9 10 12 12 13 13 13 15
14 13 15 11 12 5 14 4 3 11 4 9 4 5 5 5 8 13 11 11 14 15 16 16 15 13 10 8 5 3 1 3 5 5 6 8 10 11 12 11 13 14 15 15
18 15 14 13 15 10 17 17 15 8 10 9 6 8 14 13 13 13 12 12 15 16 17 15 14 12 9 7 5 3 2 3 4 4 6 8 10 11 12 12 13 14 15 16
14 15 13 4 5 13 5 5 11 8 8 7 7 6 14 12 12 12 11 12 14 16 15 13 13 12 9 6 5 4 2 3 4 5 7 9 10 11 13 13 14 15 15 17
10 4 6 7 9 13 11 8 9 6 5 7 10 7 11 11 11 12 11 12 14 15 13 12 12 11 8 6 5 1 1 3 5 7 9 10 10 10 12 13 13 14 14 15
5 12 11 8 10 12 9 10 10 8 8 7 9 9 10 11 12 12 12 12 14 14 12 12 10 8 8 6 3 2 1 3 6 8 8 8 10 12 13 12 12 12 8 8
1 3 8 3 16 8 11 9 7 8 8 9 10 10 10 12 12 13 11 14 14 13 12 12 10 7 6 4 2 2 1 3 5 8 9 11 13 13 13 14 15 5 3 2
Wind_Direction
203 221 221 230 227 260 325 287 248 199 160 216 234 214 246 212 197 236 227 233 218 208 184 198 182 210 229 204 215 203 221 184 202 200 196 196 193 196 196 226 290 349 355 343
205 228 245 236 300 272 255 261 265 250 168 198 253 246 251 257 195 263 291 307 7 329 156 85 58 145 238 89 115 187 220 192 205 196 209 218 218 142 214 235 342 351 346 352
229 237 214 222 217 238 240 243 242 252 209 207 256 259 242 158 248 229 53 360 21 10 11 108 115 99 66 86 112 101 138 143 173 188 172 165 167 214 217 216 317 334 341 352
223 246 194 233 234 224 245 224 254 251 250 234 205 251 225 166 180 191 140 87 53 2 165 102 109 106 91 89 97 97 98 112 179 184 204 212 243 353 40 329 319 331 328 350
223 229 196 228 224 228 250 332 211 243 245 253 218 247 246 153 179 147 105 86 84 62 79 94 97 106 110 114 111 109 111 101 93 106 59 85 311 345 3 329 313 307 316 317
239 202 238 223 232 236 237 227 242 243 240 236 243 253 234 189 186 122 117 113 112 113 110 110 111 114 113 111 110 113 104 89 85 86 76 69 52 16 354 345 331 338 320 323
215 243 208 237 221 185 220 217 214 214 228 239 222 220 240 93 85 112 133 128 130 128 125 126 125 119 118 118 117 119 115 107 100 91 77 61 46 30 1 355 347 331 333 329
211 214 213 202 228 192 214 221 243 216 213 230 145 208 207 117 112 119 124 124 136 130 123 122 122 125 119 113 112 117 116 108 98 89 76 58 39 18 3 353 341 329 329 324
213 233 212 200 213 241 207 215 245 284 282 282 185 119 136 148 138 151 151 149 139 135 130 128 125 125 125 119 116 115 112 103 94 87 73 52 25 14 353 345 340 338 331 323
243 245 194 205 210 222 247 203 231 232 258 253 248 245 205 170 169 176 174 170 152 148 141 136 136 130 131 128 125 116 108 104 95 77 52 30 13 357 352 343 345 342 334 327
228 224 206 205 203 221 204 233 236 251 239 232 250 276 79 168 179 181 187 171 160 162 150 149 138 143 143 145 134 127 119 111 97 76 55 31 359 357 349 346 351 345 336 332
213 210 245 204 216 227 211 214 230 233 233 256 280 282 89 146 161 174 187 162 155 160 150 151 148 150 154 146 139 128 121 115 92 64 33 12 358 333 349 352 352 349 342 341
202 210 225 227 181 216 238 240 222 233 238 267 262 238 141 161 151 173 182 152 151 161 158 156 154 163 158 154 147 139 131 110 87 32 2 354 339 332 334 342 347 347 343 347
211 208 223 225 205 197 206 237 232 233 229 237 240 243 167 177 175 170 197 150 166 176 163 163 164 167 162 163 157 145 131 113 12 1 328 325 332 328 328 332 342 340 344 349
206 219 224 238 262 259 220 202 226 223 227 249 256 131 239 261 188 191 182 178 170 182 170 167 173 169 164 164 160 148 136 99 39 305 315 320 317 317 323 326 328 329 341 345
202 217 230 237 233 243 254 214 217 217 228 236 253 258 93 123 88 301 248 178 182 188 178 173 176 171 170 169 171 154 150 163 324 309 303 311 318 313 312 313 321 326 331 335
195 215 220 232 235 213 243 240 226 215 221 243 242 304 86 143 151 201 265 218 182 187 178 172 176 171 165 160 163 167 146 131 311 305 306 315 316 315 316 320 314 317 320 323
202 212 222 230 229 226 236 246 227 214 232 222 212 165 138 49 75 88 320 168 168 157 163 162 163 160 147 152 153 144 139 193 271 305 305 316 315 317 317 316 314 313 311 315
207 213 219 226 194 200 296 183 173 208 216 227 241 158 147 121 138 96 78 95 119 133 141 150 150 145 145 148 146 143 193 227 295 307 311 319 319 319 318 317 323 317 315 314
210 226 230 237 163 238 191 172 188 174 227 193 192 217 174 178 234 105 101 102 110 120 129 135 138 137 140 143 149 182 163 311 301 326 316 314 317 319 317 322 321 320 317 311
206 210 224 225 243 295 136 93 65 201 122 91 125 158 155 97 77 117 112 112 117 123 130 131 137 141 138 142 149 150 226 340 336 310 310 311 317 316 308 318 318 318 319 317
201 208 222 224 249 216 147 165 203 96 114 116 126 118 98 116 125 128 127 126 128 127 134 140 133 132 142 145 150 117 35 319 322 314 309 320 319 317 321 318 316 318 309 307
223 211 219 266 268 110 169 169 107 132 130 129 132 121 126 139 134 134 132 134 131 142 137 135 142 139 134 138 138 189 50 346 333 319 320 321 318 311 322 317 311 311 330 337
163 230 198 119 141 149 137 120 130 142 132 119 117 131 142 140 140 136 140 137 145 138 148 144 142 149 143 165 185 182 349 336 322 326 321 320 318 324 319 319 323 328 333 347
325 169 184 153 164 127 152 131 106 106 110 127 126 141 136 141 142 145 142 147 146 150 143 150 147 156 164 166 162 188 333 328 334 334 325 324 324 311 309 322 320 315 328 327
278 51 213 171 166 194 140 117 125 138 144 143 139 126 134 138 142 142 145 147 145 151 148 153 168 162 149 155 164 217 292 323 335 328 340 332 318 319 328 323 329 292 269 339
Height
776 784 783 768 761 754 760 759 762 751 744 760 761 758 751 740 747 750 748 747 746 747 752 761 772 784 789 794 799 805 810 813 817 821 824 826 827 830 833 834 834 831 830 832
775 786 761 754 756 766 771 774 768 750 746 765 764 763 749 744 747 748 747 745 750 745 725 763 777 785 792 799 806 810 813 816 820 822 825 827 827 829 832 834 833 832 830 828
774 761 754 761 772 780 774 775 771 767 753 759 767 767 758 748 752 752 758 762 762 765 758 768 785 794 800 804 809 813 816 816 822 824 826 827 827 830 832 832 832 831 830 828
761 750 764 767 777 770 782 759 762 765 771 783 755 789 751 751 762 763 766 768 774 776 774 776 790 800 806 811 814 816 819 821 824 826 827 828 828 829 829 830 830 829 828 827
761 759 763 774 769 760 771 751 761 765 770 770 766 780 755 750 765 767 774 779 783 784 782 788 796 804 810 813 816 819 822 824 825 825 826 828 830 830 830 830 829 827 825 825
750 736 749 758 754 755 752 769 768 766 769 792 769 767 757 752 752 762 777 782 786 790 794 799 803 806 810 814 818 822 824 826 828 829 830 831 831 831 830 829 827 826 825 824
759 753 749 748 761 756 762 776 793 799 791 789 748 764 758 755 751 754 772 780 785 787 793 797 801 805 810 815 819 822 825 827 829 830 831 831 832 831 830 830 828 828 825 823
768 775 749 745 748 762 766 765 777 801 785 767 750 778 758 749 753 761 767 777 783 783 789 794 800 805 810 816 820 823 825 828 829 831 832 832 831 831 830 830 829 826 824 822
752 758 724 735 742 744 754 770 746 767 757 768 758 755 751 751 758 765 769 775 782 785 790 796 802 807 812 817 821 823 825 828 830 831 832 832 832 831 831 830 827 824 823 821
736 758 731 732 735 739 745 737 774 770 799 797 765 758 758 758 759 762 767 772 780 785 790 797 802 809 814 818 822 824 826 828 830 831 831 832 832 831 830 830 827 824 822 819
732 749 741 735 747 749 749 756 751 753 759 783 788 770 738 747 748 755 757 763 775 782 789 796 804 811 815 818 821 824 827 829 830 831 831 830 831 830 829 828 825 823 821 818
728 745 755 747 729 728 731 746 749 771 781 765 770 769 736 735 739 747 751 759 770 778 788 796 804 811 816 818 822 825 827 829 830 831 831 832 832 831 828 827 824 823 820 816
727 746 767 750 740 734 742 735 735 743 753 770 779 773 734 735 740 745 750 757 771 779 787 795 804 810 814 819 822 825 827 829 830 831 831 831 830 830 828 827 824 822 820 816
723 738 754 758 740 732 752 745 738 748 766 766 760 751 746 746 746 747 751 757 770 780 788 794 803 809 814 819 822 825 827 829 831 831 831 831 829 829 827 826 824 823 820 816
725 746 740 736 725 719 724 736 739 745 748 760 745 760 754 750 748 747 751 758 771 781 788 794 802 809 814 819 823 825 828 829 830 830 830 830 829 828 826 825 824 822 819 816
722 745 738 740 726 723 730 724 728 733 736 739 740 747 731 743 746 749 750 754 769 780 787 794 801 808 814 819 823 826 828 829 830 830 830 829 828 827 825 823 822 820 818 816
728 735 739 747 726 728 744 726 724 726 725 731 751 742 737 747 751 753 757 755 766 776 785 794 802 808 814 819 824 827 828 829 830 829 828 827 827 826 824 822 820 818 817 815
725 734 727 739 730 761 718 701 706 721 723 725 730 741 742 748 755 757 758 756 767 775 786 795 802 809 816 821 826 827 828 829 828 827 827 826 825 823 822 820 817 816 815 813
710 722 731 737 741 744 730 717 722 731 736 726 733 738 746 752 761 769 766 765 771 780 789 797 804 811 818 823 826 827 827 827 826 826 826 825 824 823 820 818 816 815 813 810
710 711 722 731 766 761 718 708 705 715 748 722 730 740 742 750 760 774 774 776 781 787 794 801 808 814 820 824 826 826 825 826 825 825 825 825 823 822 820 818 816 813 811 808
724 721 727 724 741 720 714 729 718 754 749 730 733 737 743 754 766 775 779 783 787 792 799 806 811 816 821 824 826 826 826 825 826 826 825 824 822 820 818 816 814 811 808 806
716 724 725 726 740 750 713 720 738 732 728 734 737 741 752 765 772 776 782 787 792 797 804 808 813 819 823 824 825 825 827 827 826 825 824 822 821 819 816 815 812 809 806 801
714 703 712 715 718 709 712 713 721 722 729 733 740 745 753 762 769 777 784 789 795 801 804 810 815 818 822 825 826 826 826 826 825 824 822 821 819 817 816 813 809 805 802 799
695 700 706 718 720 722 725 720 722 724 729 735 741 749 755 763 770 778 785 791 797 802 807 811 815 819 822 825 824 825 825 826 824 822 821 819 817 815 813 811 807 805 802 803
711 700 703 713 718 717 722 720 724 729 735 742 747 752 757 764 771 778 785 792 798 803 808 813 815 819 820 822 823 824 824 824 824 822 821 819 817 814 811 807 805 804 803 802
714 710 711 715 708 716 719 724 733 738 743 748 752 756 760 765 772 778 786 792 799 805 809 813 816 817 819 821 823 824 824 824 823 822 819 819 817 812 808 806 803 800 800 800